Location: Grieser Field
(39.7333°N, 81.7975°W)
Time: 05:30:38
(UTC-04:00)

Hubble Space Telescope - Visible Passes

Search period start: 28 August 2015 00:00
Search period end: 07 September 2015 00:00
Orbit: 541 x 545 km, 28.5° (Epoch: 27 August)

Date Brightness Start Highest point End Pass type
(mag) Time Alt. Az. Time Alt. Az. Time Alt. Az.
04 Sep 3.2 05:54:40 10° S 05:55:46 11° SSE 05:56:57 10° SSE visible
05 Sep 3.1 05:44:53 10° SSW 05:46:41 13° SSE 05:48:34 10° SE visible
06 Sep 2.9 05:36:27 13° S 05:37:37 14° S 05:39:52 10° SE visible
